ASL977 UWGG-UWLL

Flight info

Callsign ASL977
Flight time 0h 43m
Altitude 33000
Route OKSUD T778 TERDI
Aircraft A320/M-SDE3FGHIRWY/LB1

Departure

Time 2026-04-30 19:56
Airport Nizhny Novgorod / Strigino International Airport (UWGG)

Arrival

Time 2026-04-30 20:40
Airport Ulyanovsk Baratayevka Airport (UWLL)
Time Latitude Longitude Altitude Speed Heading
2026-04-30 18:57 56.22231 43.78845 266 ft 0 kts 146°
2026-04-30 19:37 56.22226 43.78851 266 ft 4 kts 146°
2026-04-30 19:38 56.22193 43.78888 266 ft 7 kts 155°
2026-04-30 19:38 56.22130 43.78876 266 ft 11 kts 190°
2026-04-30 19:38 56.22073 43.78830 266 ft 10 kts 243°
2026-04-30 19:38 56.22064 43.78696 266 ft 12 kts 224°
2026-04-30 19:39 56.21974 43.78646 266 ft 12 kts 191°
2026-04-30 19:39 56.21918 43.78558 266 ft 13 kts 279°
2026-04-30 19:39 56.21931 43.78424 267 ft 0 kts 281°
2026-04-30 19:40 56.21931 43.78421 267 ft 1 kts 281°
2026-04-30 19:41 56.21932 43.78416 267 ft 0 kts 281°
2026-04-30 19:53 56.21933 43.78402 267 ft 5 kts 281°
2026-04-30 19:54 56.21943 43.78309 267 ft 10 kts 281°
2026-04-30 19:54 56.21987 43.78217 267 ft 1 kts 360°
2026-04-30 19:54 56.21988 43.78217 267 ft 0 kts 360°
2026-04-30 19:54 56.21997 43.78219 267 ft 3 kts
2026-04-30 19:55 56.22012 43.78225 267 ft 0 kts 13°
2026-04-30 19:56 56.22099 43.78258 267 ft 46 kts 11°
2026-04-30 19:56 56.22673 43.78469 265 ft 117 kts 11°
2026-04-30 19:56 56.23656 43.78811 339 ft 163 kts 12°
2026-04-30 19:56 56.24661 43.79240 1272 ft 146 kts 13°
2026-04-30 19:57 56.25673 43.79614 1901 ft 156 kts 11°
2026-04-30 19:57 56.26814 43.80009 2286 ft 177 kts 12°
2026-04-30 19:57 56.28102 43.80505 2698 ft 202 kts 13°
2026-04-30 19:57 56.29544 43.81027 3314 ft 222 kts 12°
2026-04-30 19:58 56.31164 43.81656 3749 ft 253 kts 13°
2026-04-30 19:58 56.32898 43.82349 4769 ft 256 kts 12°
2026-04-30 19:58 56.34655 43.82951 5856 ft 259 kts
2026-04-30 19:58 56.36484 43.83566 6668 ft 269 kts 11°
2026-04-30 19:59 56.38293 43.84280 7849 ft 267 kts 17°
2026-04-30 19:59 56.39875 43.86090 8700 ft 276 kts 49°
2026-04-30 19:59 56.41138 43.92649 10086 ft 287 kts 92°
2026-04-30 20:00 56.40777 43.96305 10359 ft 308 kts 103°
2026-04-30 20:00 56.40315 44.00219 10787 ft 326 kts 102°
2026-04-30 20:00 56.39877 44.04283 11536 ft 333 kts 101°
2026-04-30 20:00 56.39451 44.08413 12351 ft 337 kts 101°
2026-04-30 20:01 56.38253 44.16666 13954 ft 345 kts 116°
2026-04-30 20:01 56.36987 44.20287 14629 ft 348 kts 130°
2026-04-30 20:01 56.35248 44.23326 15333 ft 351 kts 143°
2026-04-30 20:02 56.30894 44.27413 16733 ft 357 kts 156°
2026-04-30 20:02 56.28628 44.29277 17432 ft 360 kts 156°
2026-04-30 20:03 56.24038 44.33064 18825 ft 365 kts 156°
2026-04-30 20:03 56.21714 44.34981 19460 ft 369 kts 156°
2026-04-30 20:03 56.19371 44.36910 20084 ft 372 kts 156°
2026-04-30 20:03 56.17010 44.38849 20695 ft 376 kts 156°
2026-04-30 20:04 56.14622 44.40811 21273 ft 379 kts 155°
2026-04-30 20:04 56.12212 44.42795 21850 ft 383 kts 155°
2026-04-30 20:04 56.09781 44.44792 22430 ft 386 kts 155°
2026-04-30 20:05 56.04850 44.48830 23492 ft 394 kts 155°
2026-04-30 20:05 56.02346 44.50874 23971 ft 397 kts 155°
2026-04-30 20:05 55.97274 44.55000 24882 ft 403 kts 155°
2026-04-30 20:06 55.94713 44.57079 25357 ft 406 kts 155°
2026-04-30 20:06 55.92128 44.59174 25800 ft 409 kts 156°
2026-04-30 20:06 55.89528 44.61276 26249 ft 412 kts 156°
2026-04-30 20:06 55.86911 44.63390 26692 ft 415 kts 156°
2026-04-30 20:07 55.84274 44.65517 27129 ft 418 kts 156°
2026-04-30 20:07 55.81618 44.67658 27558 ft 420 kts 156°
2026-04-30 20:07 55.76250 44.71970 28433 ft 426 kts 156°
2026-04-30 20:08 55.73541 44.74146 28868 ft 429 kts 156°
2026-04-30 20:08 55.70808 44.76337 29273 ft 432 kts 157°
2026-04-30 20:08 55.68106 44.78500 29765 ft 433 kts 157°
2026-04-30 20:08 55.65356 44.80695 30195 ft 435 kts 157°
2026-04-30 20:09 55.62589 44.82901 30533 ft 438 kts 157°
2026-04-30 20:09 55.59802 44.85129 30852 ft 441 kts 156°
2026-04-30 20:09 55.54641 44.91155 31472 ft 451 kts 139°
2026-04-30 20:10 55.50032 44.98692 32342 ft 452 kts 139°
2026-04-30 20:10 55.47722 45.02462 32779 ft 452 kts 139°
2026-04-30 20:10 55.45410 45.06231 33073 ft 453 kts 139°
2026-04-30 20:11 55.40837 45.13693 33138 ft 443 kts 139°
2026-04-30 20:11 55.36326 45.21026 33142 ft 441 kts 139°
2026-04-30 20:12 55.31747 45.28257 30889 ft 466 kts 147°
2026-04-30 20:12 55.28981 45.31437 30447 ft 465 kts 147°
2026-04-30 20:12 55.26498 45.34892 30461 ft 448 kts 139°
2026-04-30 20:13 55.24325 45.38722 30469 ft 440 kts 135°
2026-04-30 20:13 55.22273 45.42696 30699 ft 439 kts 134°
2026-04-30 20:13 55.20221 45.46634 31295 ft 436 kts 135°
2026-04-30 20:13 55.18108 45.50440 31794 ft 436 kts 137°
2026-04-30 20:14 55.15919 45.54108 32239 ft 436 kts 140°
2026-04-30 20:14 55.13671 45.57674 32673 ft 437 kts 141°
2026-04-30 20:14 55.11415 45.61150 33042 ft 439 kts 141°
2026-04-30 20:15 55.06828 45.68207 33125 ft 440 kts 141°
2026-04-30 20:15 55.02285 45.75345 33125 ft 439 kts 140°
2026-04-30 20:16 54.97703 45.82600 33123 ft 450 kts 140°
2026-04-30 20:16 54.93054 45.89927 33115 ft 452 kts 140°
2026-04-30 20:17 54.88383 45.97241 33119 ft 452 kts 140°
2026-04-30 20:17 54.86060 46.00870 33010 ft 444 kts 141°
2026-04-30 20:17 54.83774 46.04436 32372 ft 441 kts 141°
2026-04-30 20:17 54.81457 46.08032 31165 ft 452 kts 141°
2026-04-30 20:18 54.79126 46.11643 30575 ft 444 kts 141°
2026-04-30 20:18 54.76824 46.15085 29544 ft 430 kts 143°
2026-04-30 20:18 54.74533 46.18322 28342 ft 419 kts 145°
2026-04-30 20:18 54.72271 46.21401 27156 ft 409 kts 146°
2026-04-30 20:19 54.70052 46.24376 26019 ft 400 kts 147°
2026-04-30 20:19 54.68608 46.26311 25291 ft 394 kts 148°
2026-04-30 20:19 54.65756 46.30159 23912 ft 383 kts 148°
2026-04-30 20:19 54.63726 46.32938 23505 ft 360 kts 148°
2026-04-30 20:20 54.61812 46.35571 23102 ft 345 kts 148°
2026-04-30 20:20 54.59973 46.38097 22713 ft 334 kts 148°
2026-04-30 20:20 54.58165 46.40569 22309 ft 328 kts 148°
2026-04-30 20:20 54.56391 46.42987 21910 ft 323 kts 148°
2026-04-30 20:21 54.54632 46.45379 21518 ft 321 kts 148°
2026-04-30 20:21 54.52883 46.47755 21095 ft 319 kts 148°
2026-04-30 20:21 54.51166 46.50089 20700 ft 318 kts 148°
2026-04-30 20:21 54.49437 46.52440 20279 ft 316 kts 148°
2026-04-30 20:22 54.47719 46.54777 19864 ft 314 kts 147°
2026-04-30 20:22 54.46013 46.57102 19444 ft 312 kts 147°
2026-04-30 20:22 54.44312 46.59412 19010 ft 311 kts 147°
2026-04-30 20:22 54.42617 46.61706 18578 ft 309 kts 147°
2026-04-30 20:23 54.40933 46.63981 18104 ft 307 kts 146°
2026-04-30 20:23 54.39821 46.65484 17818 ft 306 kts 146°
2026-04-30 20:23 54.37592 46.68493 17248 ft 304 kts 146°
2026-04-30 20:23 54.35932 46.70728 16827 ft 303 kts 146°
2026-04-30 20:24 54.34835 46.72202 16542 ft 302 kts 146°
2026-04-30 20:24 54.33183 46.74424 16108 ft 301 kts 146°
2026-04-30 20:24 54.31536 46.76637 15692 ft 301 kts 146°
2026-04-30 20:24 54.29893 46.78845 15265 ft 300 kts 146°
2026-04-30 20:25 54.26691 46.83419 14405 ft 303 kts 137°
2026-04-30 20:25 54.25434 46.86338 13962 ft 308 kts 124°
2026-04-30 20:26 54.24136 46.93409 13003 ft 318 kts 100°
2026-04-30 20:26 54.23616 47.00885 12108 ft 316 kts 101°
2026-04-30 20:26 54.23341 47.04606 11653 ft 316 kts 101°
2026-04-30 20:27 54.22784 47.12050 10747 ft 315 kts 101°
2026-04-30 20:27 54.22241 47.19339 10293 ft 299 kts 101°
2026-04-30 20:28 54.21730 47.26195 9913 ft 285 kts 101°
2026-04-30 20:28 54.21220 47.32888 9327 ft 283 kts 100°
2026-04-30 20:29 54.20712 47.39502 8542 ft 282 kts 99°
2026-04-30 20:30 54.19955 47.49358 7505 ft 277 kts 99°
2026-04-30 20:30 54.19212 47.58877 6235 ft 265 kts 98°
2026-04-30 20:31 54.18482 47.68150 5122 ft 259 kts 97°
2026-04-30 20:32 54.17756 47.77292 4054 ft 257 kts 97°
2026-04-30 20:32 54.17269 47.83306 3427 ft 253 kts 96°
2026-04-30 20:33 54.17029 47.86273 3039 ft 253 kts 96°
2026-04-30 20:33 54.16214 47.92092 2521 ft 240 kts 115°
2026-04-30 20:33 54.15393 47.94434 2361 ft 222 kts 119°
2026-04-30 20:34 54.13864 47.98591 2121 ft 195 kts 118°
2026-04-30 20:34 54.12696 48.02460 2088 ft 175 kts 98°
2026-04-30 20:35 54.12632 48.04383 2100 ft 155 kts 82°
2026-04-30 20:35 54.12873 48.06047 2082 ft 137 kts 66°
2026-04-30 20:35 54.13929 48.08499 2097 ft 126 kts 41°
2026-04-30 20:36 54.14654 48.09338 2109 ft 125 kts 35°
2026-04-30 20:36 54.15390 48.10121 2108 ft 124 kts 34°
2026-04-30 20:36 54.16853 48.11681 2109 ft 124 kts 34°
2026-04-30 20:37 54.17585 48.12462 2106 ft 124 kts 34°
2026-04-30 20:37 54.18317 48.13244 2112 ft 124 kts 34°
2026-04-30 20:37 54.19052 48.14028 2043 ft 124 kts 34°
2026-04-30 20:37 54.19786 48.14812 1921 ft 124 kts 34°
2026-04-30 20:38 54.20515 48.15592 1777 ft 124 kts 34°
2026-04-30 20:38 54.21246 48.16374 1612 ft 124 kts 34°
2026-04-30 20:38 54.21977 48.17156 1433 ft 124 kts 33°
2026-04-30 20:39 54.23453 48.18736 1080 ft 127 kts 32°
2026-04-30 20:39 54.24204 48.19540 908 ft 127 kts 31°
2026-04-30 20:39 54.24946 48.20336 735 ft 129 kts 31°
2026-04-30 20:40 54.26452 48.21951 446 ft 120 kts 32°
2026-04-30 20:40 54.27024 48.22567 425 ft 72 kts 32°
2026-04-30 20:40 54.27314 48.22881 415 ft 36 kts 32°
2026-04-30 20:41 54.27742 48.23329 407 ft 38 kts 31°
2026-04-30 20:41 54.27975 48.23583 395 ft 40 kts 32°
2026-04-30 20:41 54.28180 48.23808 389 ft 24 kts 33°
2026-04-30 20:41 54.28266 48.23877 388 ft 13 kts
2026-04-30 20:42 54.28336 48.23768 386 ft 16 kts 302°
2026-04-30 20:42 54.28349 48.23737 385 ft 0 kts 304°
2026-04-30 20:42 54.28350 48.23734 385 ft 2 kts 304°
2026-04-30 20:43 54.28370 48.23683 384 ft 8 kts 304°
2026-04-30 20:43 54.28415 48.23567 381 ft 14 kts 303°
2026-04-30 20:43 54.28419 48.23554 380 ft 0 kts 303°
2026-04-30 20:44 54.28443 48.23491 378 ft 10 kts 303°
2026-04-30 20:45 54.28472 48.23416 376 ft 0 kts 302°
2026-04-30 20:45 54.28472 48.23414 376 ft 1 kts 302°
2026-04-30 20:45 54.28487 48.23370 375 ft 7 kts 299°
2026-04-30 20:46 54.28545 48.23221 373 ft 8 kts
2026-04-30 20:46 54.28549 48.23297 374 ft 0 kts 117°
2026-04-30 20:47 54.28545 48.23313 374 ft 3 kts 114°
2026-04-30 20:47 54.28540 48.23329 374 ft 0 kts 122°
2026-04-30 20:48 54.28537 48.23337 374 ft 0 kts 122°